Location: Kumla
(59.1265°N, 15.1401°E)
Time: 15:49:57
(UTC+01:00)

Tiros 1 despin weight - Visible Passes

Search period start: 03 December 2023 00:00
Search period end: 13 December 2023 00:00
Orbit: 583 x 628 km, 48.2° (Epoch: 28 November)

Date Brightness Start Highest point End Pass type
(mag) Time Alt. Az. Time Alt. Az. Time Alt. Az.
05 Dec ? 18:29:23 10° S 18:29:34 10° S 18:29:34 10° S visible
06 Dec ? 18:40:24 10° SSW 18:41:24 13° S 18:41:24 13° S visible
07 Dec ? 18:51:52 10° SSW 18:53:12 15° SSW 18:53:12 15° SSW visible
08 Dec ? 17:24:44 10° S 17:26:35 12° SSE 17:28:09 11° SE visible
08 Dec ? 19:03:35 10° SW 19:04:56 15° SSW 19:04:56 15° SSW visible
09 Dec ? 17:35:49 10° SSW 17:38:24 16° SSE 17:39:53 13° SE visible
09 Dec ? 19:15:27 10° SW 19:16:40 15° SW 19:16:40 15° SW visible
10 Dec ? 17:47:17 10° SSW 17:50:15 18° S 17:51:35 16° SSE visible
10 Dec ? 19:27:27 10° SW 19:28:22 14° SW 19:28:22 14° SW visible
11 Dec ? 16:20:00 10° S 16:21:59 13° SSE 16:23:58 10° SE visible
11 Dec ? 17:58:59 10° SW 18:02:07 19° S 18:03:17 17° SSE visible
11 Dec ? 19:39:35 10° SW 19:40:04 12° SW 19:40:04 12° SW visible
12 Dec ? 16:31:07 10° SSW 16:33:47 16° SSE 16:36:26 10° SE visible
12 Dec ? 18:10:50 10° SW 18:13:58 20° S 18:15:00 18° SSE visible
